Lavon Lake Weather Center

Moon Phase Calendar



Lavon Lake Water Level
Online Cameras

 


      

Current Conditions in Culleoka
6/19/2024 5:18:12 PM

84°F
Feels Like 85
Clear
Humidity
53%
Pressure
30.06"
Wind
11.5 mph (E)
Dew Point
65°F
UV Index
1/10 (Low)
Visibility
6 mi

Hourly Forecast

Date & Time Wed, Jun 19
5:00 PM
Wed, Jun 19
6:00 PM
Wed, Jun 19
7:00 PM
Wed, Jun 19
8:00 PM
Wed, Jun 19
9:00 PM
Wed, Jun 19
10:00 PM
Wed, Jun 19
11:00 PM
Thu, Jun 20
12:00 AM
Thu, Jun 20
1:00 AM
Thu, Jun 20
2:00 AM
Thu, Jun 20
3:00 AM
Thu, Jun 20
4:00 AM
Thu, Jun 20
5:00 AM
Thu, Jun 20
6:00 AM
Thu, Jun 20
7:00 AM
Thu, Jun 20
8:00 AM
Thu, Jun 20
9:00 AM
Thu, Jun 20
10:00 AM
Thu, Jun 20
11:00 AM
Thu, Jun 20
12:00 PM
Thu, Jun 20
1:00 PM
Thu, Jun 20
2:00 PM
Thu, Jun 20
3:00 PM
Thu, Jun 20
4:00 PM
Thu, Jun 20
5:00 PM
Thu, Jun 20
6:00 PM
Thu, Jun 20
7:00 PM
Thu, Jun 20
8:00 PM
Thu, Jun 20
9:00 PM
Thu, Jun 20
10:00 PM
Thu, Jun 20
11:00 PM
Fri, Jun 21
12:00 AM
Fri, Jun 21
1:00 AM
Fri, Jun 21
2:00 AM
Fri, Jun 21
3:00 AM
Fri, Jun 21
4:00 AM
Fri, Jun 21
5:00 AM
Fri, Jun 21
6:00 AM
Fri, Jun 21
7:00 AM
Fri, Jun 21
8:00 AM
Fri, Jun 21
9:00 AM
Fri, Jun 21
10:00 AM
Fri, Jun 21
11:00 AM
Fri, Jun 21
12:00 PM
Fri, Jun 21
1:00 PM
Fri, Jun 21
2:00 PM
Fri, Jun 21
3:00 PM
Fri, Jun 21
4:00 PM
Condition
Clear

Clouds

Clouds

Clouds

Clouds

Clouds

Clouds

Clouds

Clouds

Clouds

Clouds

Clouds

Clouds

Clouds

Clouds

Clouds

Clouds

Clouds

Clouds

Clouds

Clouds

Clouds

Clouds

Clouds

Clouds

Clouds

Clouds

Clouds

Clouds

Clouds

Clouds

Clouds

Clouds

Clouds

Clouds

Clouds

Clouds

Clouds

Clouds

Clouds

Clouds

Clouds

Clouds

Clouds

Clouds

Clear

Clouds

Clouds
Temperature 84°F82°F81°F79°F76°F75°F75°F75°F75°F74°F73°F73°F73°F73°F73°F75°F78°F82°F84°F86°F88°F89°F90°F87°F86°F87°F86°F82°F80°F79°F79°F78°F77°F76°F75°F75°F75°F75°F75°F77°F77°F78°F80°F83°F87°F90°F91°F88°F
Feels Like 85°F85°F83°F79°F77°F75°F76°F76°F76°F75°F74°F74°F74°F74°F74°F76°F79°F86°F89°F91°F93°F94°F94°F92°F91°F91°F91°F87°F80°F79°F80°F79°F78°F77°F76°F76°F76°F76°F76°F78°F78°F79°F80°F87°F92°F93°F94°F92°F
Cloudiness 0%20%40%60%80%100%100%100%100%100%100%100%100%100%100%100%100%96%85%83%78%69%75%83%87%81%76%25%14%15%35%49%57%100%100%100%99%99%93%93%100%100%100%100%97%9%34%53%
Visibility 6 mi6 mi6 mi6 mi6 mi6 mi6 mi6 mi6 mi6 mi6 mi6 mi6 mi6 mi6 mi6 mi6 mi6 mi6 mi6 mi6 mi6 mi6 mi6 mi6 mi6 mi6 mi6 mi6 mi6 mi6 mi6 mi6 mi6 mi6 mi6 mi6 mi6 mi6 mi6 mi6 mi6 mi6 mi6 mi6 mi6 mi6 mi6 mi
Precipitation 0%0%0%0%0%0%0%0%0%0%0%0%0%0%0%0%0%0%0%0%0%0%0%0%0%0%0%0%0%0%0%0%0%0%0%0%0%0%0%0%0%0%0%0%0%3%0%0%
Humidity 53%59%64%70%76%80%80%79%80%83%84%85%86%87%89%84%77%70%64%58%55%52%51%57%62%57%63%71%74%74%72%73%72%74%78%78%78%79%82%79%79%78%73%66%55%48%45%51%
Dew Point 65°F67°F67°F68°F68°F68°F68°F68°F68°F68°F68°F68°F68°F68°F69°F70°F71°F71°F71°F70°F70°F69°F69°F70°F71°F70°F71°F72°F70°F70°F69°F68°F68°F67°F68°F68°F68°F68°F69°F70°F70°F70°F70°F70°F69°F68°F67°F68°F
Pressure 30.06"30.06"30.06"30.03"30.03"30.06"30.06"30.06"30.06"30.06"30.06"30.06"30.09"30.09"30.12"30.12"30.15"30.15"30.15"30.15"30.12"30.12"30.09"30.09"30.09"30.09"30.09"30.09"30.09"30.09"30.09"30.09"30.09"30.09"30.09"30.09"30.09"30.12"30.12"30.15"30.15"30.15"30.15"30.12"30.12"30.09"30.06"30.03"
Wind Speed 9.2 mph10.2 mph10.9 mph9.1 mph8 mph7.6 mph8.6 mph8.9 mph8.2 mph7.6 mph7.4 mph8.2 mph8.4 mph8.1 mph7.1 mph9.4 mph11.7 mph12.8 mph13.3 mph13.9 mph14.7 mph14.4 mph14.2 mph13.8 mph12.7 mph12.5 mph8.8 mph6.3 mph7.2 mph7.6 mph7.1 mph7.5 mph7.8 mph8 mph7.5 mph7.3 mph6.5 mph6 mph5.6 mph4.6 mph4.4 mph6.1 mph7 mph7.2 mph7.4 mph8 mph7.6 mph6.6 mph
Wind
Direction
82°
E
64°
ENE
70°
ENE
63°
ENE
58°
ENE
59°
ENE
55°
NE
58°
ENE
55°
NE
65°
ENE
55°
NE
60°
ENE
74°
ENE
75°
ENE
75°
ENE
85°
E
100°
E
110°
ESE
106°
ESE
114°
ESE
120°
ESE
125°
SE
125°
SE
111°
ESE
90°
E
99°
E
99°
E
89°
E
74°
ENE
67°
ENE
62°
ENE
65°
ENE
80°
E
108°
ESE
129°
SE
134°
SE
135°
SE
134°
SE
140°
SE
149°
SSE
140°
SE
134°
SE
136°
SE
139°
SE
143°
SE
138°
SE
131°
SE
118°
ESE

Daily Forecast

Date High Low Precip. Humidity
Today
Jun 19

Clouds
85 °F
70 °F
0%
57%
Thursday
Jun 20

Clouds
90 °F
73 °F
0%
55%
Friday
Jun 21

Clouds
91 °F
75 °F
3%
55%
Saturday
Jun 22

Clouds
92 °F
76 °F
0%
45%
Sunday
Jun 23

Clear
95 °F
76 °F
0%
40%
Monday
Jun 24

Clear
95 °F
76 °F
0%
46%
Tuesday
Jun 25

Clouds
96 °F
78 °F
0%
50%
Wednesday
Jun 26

Clouds
97 °F
78 °F
0%
47%
Thursday
Jun 27

Clear
96 °F
78 °F
0%
48%
Friday
Jun 28

Clear
94 °F
76 °F
0%
42%
Saturday
Jun 29

Rain
91 °F
77 °F
100%
55%
Sunday
Jun 30

Rain
93 °F
77 °F
95%
48%
Monday
Jul 1

Clouds
95 °F
77 °F
0%
45%
Tuesday
Jul 2

Clear
95 °F
77 °F
0%
46%
Wednesday
Jul 3

Clear
98 °F
77 °F
0%
45%
Thursday
Jul 4

Clear
99 °F
79 °F
0%
40%

Temperature 8-14 Day Outlook



Precipitation 8-14 Day Outlook






About Us
Contact Us
Site Map
Search Site
Advertise With Us
   
Lavon.USLakes.info
THE LAVON LAKE WEBSITE

Copyright 2024, Lakes Online
Privacy    |    Legal